Menomonie, WI

6:56 PM CST on December 05, 2019 (GMT -0600)
Menomonie

Weather History for KLUM - October, 2019

Change the Weather History Date:

Thursday, October 10, 2019

  Actual Average (WUND) Record (WUND)
Temperature  
Mean Temperature 54 °F -  
Max Temperature 60 °F - - (-1)
Min Temperature 48 °F - - (-1)
Degree Days  
Heating Degree Days 11    
Growing Degree Days 4 (Base 50)    
Moisture  
Dew Point 50 °F    
Average Humidity 87    
Maximum Humidity 99    
Minimum Humidity 67    
Precipitation  
Precipitation 0.01 in - - ()
Sea Level Pressure  
Sea Level Pressure 29.90 in    
Wind  
Wind Speed 6 mph (ESE)    
Max Wind Speed 16 mph    
Max Gust Speed 21 mph    
Visibility 9 miles    
Events Rain , Thunderstorm    
Averages and records for this station are not official NWS values.
T = Trace of Precipitation, MM = Missing Value Source: NWS Daily Summary

Daily Weather History Graph

Daily Weather History Graph

Search for Another Location

Airport or City:

Astronomy

Oct. 10, 2019 Rise Set
Actual Time 7:16 AM CDT 6:31 PM CDT
Civil Twilight 6:47 AM CDT 7:01 PM CDT
Nautical Twilight 6:13 AM CDT 7:34 PM CDT
Astronomical Twilight 5:39 AM CDT 8:08 PM CDT
Moon 5:44 PM CDT (10/10) 3:48 AM CDT (10/10)
Length of Visible Light 12h 14m
Length of Day
11h 15m
Waxing Gibbous, 91% of the Moon is Illuminated
Oct 10
Waxing Gibbous
Oct 13
Full
Oct 21
Last Quarter
Oct 27
New
Nov 4
First Quarter

Hourly Weather History & Observations

Time (CDT) Temp. Dew Point Humidity Pressure Visibility Wind Dir Wind Speed Gust Speed Precip Events Conditions
12:15 AM 49.8 °F 43.0 °F 77% 30.02 in 10.0 mi Calm Calm - N/A   Clear
12:35 AM 50.0 °F 43.0 °F 77% 30.02 in 10.0 mi Calm Calm - N/A   Scattered Clouds
12:55 AM 49.8 °F 43.3 °F 78% 30.02 in 10.0 mi ESE 3.5 mph - N/A   Scattered Clouds
1:15 AM 49.6 °F 43.7 °F 80% 30.03 in 10.0 mi ESE 3.5 mph - N/A   Clear
1:35 AM 49.8 °F 43.9 °F 80% 30.03 in 10.0 mi ESE 6.9 mph - N/A   Scattered Clouds
1:55 AM 50.0 °F 44.1 °F 80% 30.03 in 10.0 mi SE 4.6 mph - N/A   Clear
2:35 AM 50.0 °F 44.2 °F 81% 30.04 in 10.0 mi SE 5.8 mph - N/A   Mostly Cloudy
2:55 AM 50.4 °F 44.4 °F 80% 30.04 in 10.0 mi ESE 5.8 mph - N/A   Overcast
3:15 AM 52.2 °F 44.2 °F 74% 30.03 in 10.0 mi ESE 4.6 mph - N/A   Overcast
3:35 AM 50.0 °F 45.0 °F 83% 30.03 in 10.0 mi East 3.5 mph - N/A Rain Rain
3:55 AM 50.0 °F 45.5 °F 85% 30.03 in 10.0 mi East 5.8 mph - N/A Rain Rain
4:15 AM 49.5 °F 46.2 °F 89% 30.00 in 10.0 mi ENE 5.8 mph - N/A   Overcast
4:35 AM 49.3 °F 46.2 °F 89% 29.99 in 10.0 mi ENE 3.5 mph - N/A   Mostly Cloudy
4:55 AM 49.1 °F 46.6 °F 91% 29.98 in 10.0 mi East 5.8 mph - N/A   Scattered Clouds
5:15 AM 48.2 °F 46.6 °F 94% 29.98 in 10.0 mi East 3.5 mph - N/A   Scattered Clouds
5:35 AM 49.1 °F 47.1 °F 93% 29.97 in 10.0 mi ESE 4.6 mph - N/A   Scattered Clouds
5:55 AM 49.8 °F 47.1 °F 90% 29.98 in 10.0 mi ESE 5.8 mph - N/A   Mostly Cloudy
6:15 AM 50.0 °F 47.3 °F 90% 29.98 in 10.0 mi ESE 6.9 mph - N/A   Overcast
6:35 AM 50.0 °F 47.5 °F 91% 29.97 in 10.0 mi ESE 6.9 mph - N/A   Overcast
6:55 AM 50.2 °F 47.3 °F 90% 29.96 in 10.0 mi East 3.5 mph - N/A   Overcast
7:15 AM 50.2 °F 47.3 °F 90% 29.95 in 10.0 mi East 3.5 mph - N/A   Overcast
7:35 AM 50.0 °F 47.3 °F 90% 29.94 in 10.0 mi East 4.6 mph - N/A   Overcast
7:55 AM 50.4 °F 47.3 °F 89% 29.93 in 10.0 mi East 6.9 mph - N/A   Overcast
8:15 AM 50.9 °F 46.8 °F 86% 29.94 in 10.0 mi East 8.1 mph - 0.01 in   Overcast
8:35 AM 51.1 °F 46.4 °F 84% 29.96 in 10.0 mi ESE 5.8 mph - 0.01 in   Overcast
8:55 AM 51.1 °F 46.6 °F 85% 29.97 in 10.0 mi ESE 9.2 mph - 0.01 in   Overcast
9:15 AM 51.3 °F 46.4 °F 83% 29.97 in 10.0 mi East 6.9 mph - N/A   Overcast
9:35 AM 51.8 °F 46.4 °F 82% 29.97 in 10.0 mi East 10.4 mph - N/A   Overcast
9:55 AM 52.9 °F 46.6 °F 79% 29.97 in 10.0 mi ESE 10.4 mph - N/A   Overcast
10:15 AM 53.8 °F 46.6 °F 77% 29.97 in 10.0 mi ESE 12.7 mph 17.3 mph N/A   Mostly Cloudy
10:35 AM 53.8 °F 46.9 °F 78% 29.96 in 10.0 mi ESE 8.1 mph - N/A   Overcast
10:55 AM 54.3 °F 47.3 °F 77% 29.96 in 10.0 mi ESE 8.1 mph - N/A   Overcast
11:15 AM 55.6 °F 48.0 °F 76% 29.96 in 10.0 mi ESE 8.1 mph - N/A   Overcast
11:35 AM 58.1 °F 48.4 °F 70% 29.93 in 10.0 mi ESE 11.5 mph 17.3 mph N/A   Mostly Cloudy
11:55 AM 59.4 °F 48.7 °F 68% 29.92 in 10.0 mi ESE 13.8 mph 20.7 mph N/A   Scattered Clouds
12:15 PM 60.1 °F 49.1 °F 67% 29.91 in 10.0 mi ESE 15.0 mph 20.7 mph N/A   Scattered Clouds
12:35 PM 59.7 °F 49.1 °F 68% 29.90 in 10.0 mi ESE 16.1 mph 19.6 mph N/A   Clear
12:55 PM 58.8 °F 48.7 °F 69% 29.89 in 10.0 mi ESE 15.0 mph 20.7 mph N/A   Mostly Cloudy
1:55 PM 57.9 °F 49.8 °F 74% 29.88 in 10.0 mi ESE 11.5 mph - N/A   Overcast
2:15 PM 57.0 °F 50.9 °F 80% 29.88 in 10.0 mi ESE 9.2 mph - N/A   Drizzle
2:35 PM 55.8 °F 52.7 °F 89% 29.86 in 7.0 mi East 6.9 mph - N/A Rain Rain
2:55 PM 55.9 °F 53.6 °F 92% 29.86 in 10.0 mi East 8.1 mph - N/A Rain Light Rain
3:15 PM 55.8 °F 53.8 °F 93% 29.85 in 5.0 mi East 5.8 mph - N/A   Drizzle
3:35 PM 55.4 °F 54.0 °F 95% 29.83 in 4.0 mi East 9.2 mph - N/A Rain Rain
3:55 PM 56.8 °F 54.9 °F 93% 29.81 in 10.0 mi East 9.2 mph - N/A   Mostly Cloudy
4:55 PM 58.1 °F 54.9 °F 89% 29.81 in 10.0 mi ESE 6.9 mph - N/A   Mostly Cloudy
5:15 PM 58.1 °F 54.5 °F 88% 29.82 in 10.0 mi SE 6.9 mph - N/A   Overcast
5:35 PM 57.2 °F 55.0 °F 92% 29.82 in 4.0 mi ESE 9.2 mph - N/A Rain Rain
5:55 PM 56.8 °F 55.4 °F 95% 29.81 in 4.0 mi ESE 9.2 mph - N/A Rain Light Rain
6:15 PM 56.3 °F 55.4 °F 97% 29.81 in 4.0 mi East 6.9 mph - N/A   Drizzle
6:35 PM 56.3 °F 55.4 °F 97% 29.80 in 10.0 mi East 4.6 mph - N/A   Overcast
6:55 PM 56.3 °F 55.2 °F 96% 29.79 in 10.0 mi East 6.9 mph - N/A   Overcast
7:15 PM 56.5 °F 55.4 °F 96% 29.78 in 10.0 mi East 6.9 mph - N/A   Overcast
7:35 PM 56.7 °F 55.4 °F 96% 29.78 in 10.0 mi East 8.1 mph - N/A   Overcast
7:55 PM 57.2 °F 55.4 °F 94% 29.78 in 10.0 mi East 8.1 mph - N/A   Overcast
8:15 PM 57.2 °F 55.6 °F 94% 29.77 in 10.0 mi ESE 8.1 mph - N/A   Overcast
8:35 PM 57.2 °F 55.8 °F 95% 29.76 in 10.0 mi ESE 9.2 mph - N/A   Overcast
8:55 PM 57.4 °F 55.8 °F 94% 29.76 in 10.0 mi ESE 6.9 mph - N/A   Overcast
9:15 PM 57.6 °F 55.9 °F 94% 29.75 in 10.0 mi ESE 8.1 mph - N/A   Overcast
9:55 PM 57.4 °F 56.7 °F 97% 29.74 in 3.0 mi ESE 10.4 mph 16.1 mph N/A Rain , Thunderstorm Light Thunderstorms and Rain
10:15 PM 57.4 °F 56.7 °F 97% 29.74 in 7.0 mi ESE 9.2 mph - N/A Rain , Thunderstorm Light Thunderstorms and Rain
10:35 PM 57.4 °F 56.8 °F 98% 29.74 in 3.0 mi ESE 9.2 mph - N/A Rain Light Rain
10:55 PM 57.4 °F 57.2 °F 99% 29.73 in 5.0 mi ESE 9.2 mph - N/A Rain Light Rain
11:15 PM 57.4 °F 57.2 °F 99% 29.73 in 2.5 mi ESE 10.4 mph - N/A   Overcast
11:35 PM 57.4 °F 57.2 °F 99% 29.71 in 3.0 mi ESE 9.2 mph - N/A Rain Light Rain
11:55 PM 57.6 °F 57.4 °F 99% 29.71 in 4.0 mi SE 11.5 mph - N/A Thunderstorm Overcast